OBJECT C, 62083

Orbit data source: Space-Track

You're viewing an Uncataloged Satellite

Recently launched and/or uncataloged satellites may have evolving metadata. Metadata may include but not limited to: Owner, Maufacturer, Bus, Motor, and Mission.

OBJECT C, 62083 is a satellite in SSO that was launched on Mon, 25 Nov 2024 UTC via an ELECTRON launch vehicle from the Rocket Lab Launch Complex (RLLC). Unknown objects in Earth's orbit typically refer to objects detected orbiting the Earth but have not yet been identified or cataloged. These objects could be anything from previously untracked satellites, spent rocket stages, debris from satellite collisions, or even natural meteoroids temporarily captured by Earth's gravity.

Loading next visibility...
OBJECT C details
Identifier
62083, 2024-219C
Orbit
SSO
Last TLE update5 hours ago
Origin
Flag of TBDKINEIS (TBD)
ManufacturerKINEIS
MissionOperational spacecraft
Bus & MotorCUBESAT 16U, Unknown motor
Mass28 kg wet, 28 kg dry
Launch date (UTC)
2024-11-25 (3 weeks ago)
Launch vehicle
ELECTRON
Launch site
Rocket Lab Launch Complex (RLLC)
Object typeUnknown
Shape & HBRUnknown
Radar Cross SectionMedium (>0.1 m² and <1 m²)

Expand to show TLE details & history

TLE from 5 hours ago
0 OBJECT C
1 62083U 24219C   24348.75276609  .00003518  00000-0  50442-3 0  9995
2 62083  97.9486 147.4381 0000722  44.4187 315.7081 14.77149775  2730
Epoch: 2024-12-13T18:03Z
Definitive object data (Epoch: 2024-12-13T18:03:58.99Z)
Latitude-0.00001°
Longitude153.52808°
Altitude640.989 km
Speed7.538 km/s
True Right ascension09h 49m 45s
True Declination0° 00' 00"
Sunlit
Object was in daylight at TLE epoch
Visualization TLE readout
Latitude26.30359°
Longitude149.79704°
Altitude641.128 km
Speed7.54 km/s
Apparent Right ascension09h 35m 14s
Apparent Declination-4° 59' 25"
Sunlit
Object is in full shadow
Visualization observer readout
Local Sidereal Time21:35:46
Azimuth0.233° NNE
Elevation-55.074°
Doppler factor1
Orbital elements
Apogee altitude635.889 km
Perigee altitude634.876 km
Semi-major axis7,013.519 km
Eccentricity0.0000722
Inclination97.9486°
RAAN147.4381°
Arg. of periapsis44.4187°
True anomaly315.70232°
Mean anomaly315.7081°
Eccentric anomaly315.70521°
Mean motion3.69521 °/min
BSTAR0.00050442
Orbital period97.42 mins
Loading maneuver chart data...
Loading historical data...
Loading historical data...
Loading historical data...
Loading historical data...
Loading historical data...
Loading historical data...
Loading historical data...

OBJECT C Visibility forecast

Observer location: undefined°, undefined

Span
Click to sort rows by Start time (UTC) header in descending order
Start Az.
Max El. time (UTC)
Max El. Az.
Max El.
End time (UTC)
End Az.
8 mins2024-12-13 23:30:46.421Z19.075° NNE2024-12-13 23:34:46.421Z125.502° SE42.55°2024-12-13 23:38:46.421Z184.987° SSW
7 mins2024-12-14 10:27:46.421Z142.63° SSE2024-12-14 10:30:46.421Z64.874° ENE38.101°2024-12-14 10:34:46.421Z358.063° N
|